Regional Weather Roundup
Issued by NWS Little Rock, AR

Home | Current Version | Previous Version | Text Only | Print | Product List | Glossary Off
Versions: 1 2 3 4 5 6 7 8 9 10 11 12 13 14 15 16 17 18 19 20 21 22 23 24 25 26 27 28 29 30

000
ASUS44 KLZK 220305
RWRLZK

WEATHER ROUNDUP FOR ARKANSAS
NATIONAL WEATHER SERVICE LITTLE ROCK AR
1000 PM CDT TUE OCT 21 2014

NOTE: "FAIR" INDICATES FEW OR NO CLOUDS BELOW 12,000 FEET WITH NO
SIGNIFICANT WEATHER AND/OR OBSTRUCTIONS TO VISIBILITY.

ARZ001-003-010-029-220400-
NORTHWEST ARKANSAS

CITY           SKY/WX    TMP DP  RH WIND       PRES   REMARKS
FAYETTEVILLE   CLEAR     52  52 100 CALM      30.12R
FORT SMITH     CLEAR     64  59  83 NE5       30.08R
HARRISON       CLEAR     57  48  72 CALM      30.13R
BENTONVILLE    CLEAR     61  54  77 E3        30.12R
ROGERS         CLEAR     58  54  86 E7        30.13R
SILOAM SPGS    CLEAR     61  52  72 E5        30.12R
HIGHFILL       CLEAR     55  53  93 NE5       30.11R
$$

ARZ004-005-016-220400-
NORTH CENTRAL ARKANSAS

CITY           SKY/WX    TMP DP  RH WIND       PRES   REMARKS
BATESVILLE     CLEAR     55  50  82 NW6       30.12R
FLIPPIN        CLEAR     54  45  71 CALM      30.13R
MTN HOME       CLEAR     57  47  69 CALM      30.12R
$$

ARZ040-041-220400-
WEST CENTRAL ARKANSAS

CITY           SKY/WX    TMP DP  RH WIND       PRES   REMARKS
MENA           CLEAR     61  59  94 CALM      30.11R
MOUNT IDA      CLEAR     58  57  97 CALM      30.08R FOG
$$

ARZ009-017-025-026-028-220400-
NORTHEAST ARKANSAS

CITY           SKY/WX    TMP DP  RH WIND       PRES   REMARKS
CORNING        FAIR      57  48  72 NE6       30.14R
JONESBORO      CLEAR     59  49  69 NE7       30.12R
NEWPORT        CLEAR     59  50  72 CALM      30.12R
WALNUT RIDGE   CLEAR     55  48  76 NE8       30.13R
BLYTHEVILLE    CLEAR     56  49  77 NE6       30.12R
$$

ARZ022-023-033-042-044-220400-
CENTRAL ARKANSAS

CITY           SKY/WX    TMP DP  RH WIND       PRES   REMARKS
LITTLE ROCK    CLEAR     61  53  75 NE3       30.10R
N LITTLE ROCK  CLEAR     63  54  74 E3        30.10R
JACKSONVILLE   CLEAR     56  53  91 CALM      30.10R
SEARCY         CLEAR     54  51  90 CALM      30.12R
HOT SPRINGS    CLEAR     59  55  87 CALM      30.10R
RUSSELLVILLE   CLEAR     57  54  89 CALM      30.10R
$$

ARZ036-220400-
EAST ARKANSAS

CITY           SKY/WX    TMP DP  RH WIND       PRES   REMARKS
WEST MEMPHIS   CLEAR     54  50  86 CALM      30.09R
$$

ARZ050-053-066-070-073-220400-
SOUTHWEST ARKANSAS

CITY           SKY/WX    TMP DP  RH WIND       PRES   REMARKS
ARKADELPHIA    FAIR      59  59 100 CALM      30.10R
CAMDEN         CLEAR     57  55  94 CALM      30.08R FOG
TEXARKANA      CLEAR     63  61  93 CALM      30.08R
EL DORADO      CLEAR     60  59  96 CALM      30.08R
DE QUEEN       MOCLDY    65  64  97 E3        30.06R FOG
$$

ARZ056-057-069-220400-
SOUTHEAST ARKANSAS

CITY           SKY/WX    TMP DP  RH WIND       PRES   REMARKS
PINE BLUFF     CLEAR     62  50  64 E5        30.09R
STUTTGART      CLEAR     63  48  59 NE6       30.11R
MONTICELLO     CLEAR     58  56  93 CALM      30.09R

$$





USA.gov is the U.S. government's official web portal to all federal, state and local government web resources and services.